Time,TemperatureF,DewpointF,PressureIn,WindDirection,WindDirectionDegrees,WindSpeedMPH,WindSpeedGustMPH,Humidity,HourlyPrecipIn,Conditions,Clouds,dailyrainin,SoftwareType,DateUTC
2013-10-31 00:23:00,60.0,57.0,-100.00,WNW,285,10.0,14.0,90,-99.99,,,-99.99,,2013-10-31 05:23:00,
2013-10-31 00:52:00,62.0,60.0,-100.00,West,270,8.0,21.0,91,-99.99,,,-99.99,,2013-10-31 05:52:00,
2013-10-31 01:22:00,65.0,62.0,-100.00,WSW,250,13.0,26.0,92,-99.99,,,-99.99,,2013-10-31 06:22:00,
2013-10-31 01:53:00,64.0,62.0,-100.00,SW,225,11.0,26.0,91,-99.99,,,-99.99,,2013-10-31 06:53:00,
2013-10-31 02:21:00,64.0,61.0,-100.00,SW,220,14.0,24.0,91,-99.99,,,-99.99,,2013-10-31 07:21:00,
2013-10-31 02:52:00,64.0,61.0,-100.00,SW,225,11.0,27.0,92,-99.99,,,-99.99,,2013-10-31 07:52:00,
2013-10-31 03:22:00,64.0,61.0,-100.00,SW,235,15.0,26.0,92,-99.99,,,-99.99,,2013-10-31 08:22:00,
2013-10-31 03:52:00,62.0,60.0,-100.00,West,260,14.0,30.0,91,-99.99,,,-99.99,,2013-10-31 08:52:00,
2013-10-31 04:22:00,62.0,59.0,-100.00,WSW,255,14.0,24.0,91,-99.99,,,-99.99,,2013-10-31 09:22:00,
2013-10-31 04:53:00,62.0,60.0,-100.00,WSW,250,15.0,21.0,91,-99.99,,,-99.99,,2013-10-31 09:53:00,
2013-10-31 05:23:00,62.0,60.0,-100.00,WSW,255,7.0,18.0,91,-99.99,,,-99.99,,2013-10-31 10:23:00,
2013-10-31 05:53:00,62.0,59.0,-100.00,West,270,12.0,18.0,91,-99.99,,,-99.99,,2013-10-31 10:53:00,
2013-10-31 06:21:00,61.0,59.0,-100.00,West,270,11.0,15.0,91,-99.99,,,-99.99,,2013-10-31 11:21:00,
2013-10-31 06:52:00,61.0,58.0,-100.00,West,260,11.0,17.0,90,-99.99,,,-99.99,,2013-10-31 11:52:00,
2013-10-31 07:22:00,61.0,58.0,-100.00,West,270,14.0,18.0,91,-99.99,,,-99.99,,2013-10-31 12:22:00,
2013-10-31 07:52:00,61.0,58.0,-100.00,West,270,13.0,18.0,91,-99.99,,,-99.99,,2013-10-31 12:52:00,
2013-10-31 08:22:00,62.0,59.0,-100.00,West,270,6.0,14.0,91,-99.99,,,-99.99,,2013-10-31 13:22:00,
2013-10-31 08:52:00,62.0,59.0,-100.00,SW,235,5.0,13.0,91,-99.99,,,-99.99,,2013-10-31 13:52:00,
2013-10-31 09:21:00,62.0,60.0,-100.00,SSW,200,6.0,10.0,92,-99.99,,,-99.99,,2013-10-31 14:21:00,
2013-10-31 09:52:00,62.0,60.0,-100.00,SW,230,6.0,11.0,92,-99.99,,,-99.99,,2013-10-31 14:52:00,
2013-10-31 11:23:00,63.0,60.0,-100.00,SW,215,6.0,13.0,92,-99.99,,,-99.99,,2013-10-31 16:23:00,
2013-10-31 11:53:00,62.0,60.0,-100.00,WSW,245,4.0,9.0,92,-99.99,,,-99.99,,2013-10-31 16:53:00,
2013-10-31 12:22:00,62.0,59.0,-100.00,SW,230,3.0,6.0,89,-99.99,,,-99.99,,2013-10-31 17:22:00,
2013-10-31 12:52:00,60.0,57.0,-100.00,NW,320,7.0,9.0,90,-99.99,,,-99.99,,2013-10-31 17:52:00,
2013-10-31 13:22:00,61.0,58.0,-100.00,SW,225,1.0,4.0,91,-99.99,,,-99.99,,2013-10-31 18:22:00,
2013-10-31 13:52:00,61.0,58.0,-100.00,SSE,160,0.0,4.0,91,-99.99,,,-99.99,,2013-10-31 18:52:00,
2013-10-31 14:21:00,60.0,58.0,-100.00,NNW,335,9.0,11.0,93,-99.99,,,-99.99,,2013-10-31 19:21:00,
2013-10-31 14:52:00,59.0,57.0,-100.00,North,350,5.0,14.0,93,-99.99,,,-99.99,,2013-10-31 19:52:00,
2013-10-31 15:22:00,59.0,56.0,-100.00,NE,40,7.0,15.0,91,-99.99,,,-99.99,,2013-10-31 20:22:00,
2013-10-31 15:52:00,59.0,57.0,-100.00,NNE,30,9.0,16.0,93,-99.99,,,-99.99,,2013-10-31 20:52:00,
2013-10-31 16:22:00,58.0,56.0,-100.00,NNE,25,11.0,18.0,92,-99.99,,,-99.99,,2013-10-31 21:22:00,
2013-10-31 16:54:00,58.0,55.0,-100.00,North,355,9.0,21.0,91,-99.99,,,-99.99,,2013-10-31 21:54:00,
2013-10-31 17:24:00,57.0,54.0,-100.00,NNW,340,11.0,22.0,90,-99.99,,,-99.99,,2013-10-31 22:24:00,
2013-10-31 17:53:00,56.0,52.0,-100.00,NNW,340,11.0,15.0,86,-99.99,,,-99.99,,2013-10-31 22:53:00,
2013-10-31 18:22:00,54.0,50.0,-100.00,NNW,330,17.0,23.0,86,-99.99,,,-99.99,,2013-10-31 23:22:00,
2013-10-31 18:54:00,53.0,50.0,-100.00,WNW,300,15.0,23.0,91,-99.99,,,-99.99,,2013-10-31 23:54:00,
2013-10-31 19:21:00,51.0,49.0,-100.00,West,280,6.0,11.0,92,-99.99,,,-99.99,,2013-11-01 00:21:00,
2013-10-31 19:52:00,51.0,48.0,-100.00,NW,320,10.0,13.0,92,-99.99,,,-99.99,,2013-11-01 00:52:00,
2013-10-31 20:22:00,50.0,48.0,-100.00,WNW,290,10.0,15.0,93,-99.99,,,-99.99,,2013-11-01 01:22:00,
2013-10-31 20:52:00,50.0,48.0,-100.00,NW,320,14.0,19.0,93,-99.99,,,-99.99,,2013-11-01 01:52:00,
2013-10-31 21:22:00,49.0,46.0,-100.00,NNW,330,13.0,24.0,91,-99.99,,,-99.99,,2013-11-01 02:22:00,
2013-10-31 21:52:00,49.0,46.0,-100.00,NW,305,12.0,16.0,91,-99.99,,,-99.99,,2013-11-01 02:52:00,
2013-10-31 22:22:00,48.0,45.0,-100.00,NW,310,14.0,20.0,88,-99.99,,,-99.99,,2013-11-01 03:22:00,
2013-10-31 22:54:00,48.0,45.0,-100.00,NW,305,14.0,20.0,90,-99.99,,,-99.99,,2013-11-01 03:54:00,
2013-10-31 23:24:00,48.0,44.0,-100.00,WNW,300,16.0,23.0,88,-99.99,,,-99.99,,2013-11-01 04:24:00,
2013-10-31 23:54:00,47.0,44.0,-100.00,WNW,300,16.0,20.0,88,-99.99,,,-99.99,,2013-11-01 04:54:00,